DateTimeUTC,F1_A11,F1_S11,BsB_S11,BsG_S11,BsR_S11,BbsB_S11,BbsG_S11,BbsR_S11,BaB_A11,BaG_A11,BaR_A11,Tu_S11,T_S11,Uu_S11,U_S11,P_S11,T1_A11
2021-07-10T21:00:00Z,00000200,20000000,,,,,,,0000.11,-000.14,-000.06,19.4,25.9,11.7,07.9,0676.3,31.1
2021-07-10T21:01:00Z,00000200,20000000,,,,,,,-000.24,0000.11,0000.14,19.4,25.9,11.7,07.9,0676.3,31.1
2021-07-10T21:02:00Z,00000200,20000000,,,,,,,0000.17,0000.07,-000.29,19.4,25.9,11.7,07.9,0676.3,31.1
2021-07-10T21:03:00Z,00000200,60000000,,,,,,,0000.09,0000.13,0000.33,19.4,25.9,11.7,07.9,0676.3,31.1
2021-07-10T21:04:00Z,00000200,40000000,0000.38,0000.19,-000.12,-000.03,0000.15,0000.06,0000.22,-000.28,-000.09,19.5,25.8,11.8,08.1,0677.2,31.1
2021-07-10T21:05:00Z,00000200,00000000,0001.07,0000.12,-000.09,0000.05,0000.10,-000.21,-000.42,0000.27,0000.39,19.5,25.7,11.8,08.1,0677.3,31.1
2021-07-10T21:06:00Z,00000200,00000000,0000.74,0000.29,-000.22,-000.20,0000.18,-000.14,0000.40,-000.08,-000.03,19.5,25.7,12.0,08.2,0677.3,31.1
2021-07-10T21:07:00Z,00000200,00000000,0001.01,0000.24,0000.08,0000.23,0000.15,-000.10,0000.06,0000.21,-000.19,19.6,25.7,11.9,08.2,0677.3,31.1
2021-07-10T21:08:00Z,00000200,00000000,0000.72,0000.30,0000.31,-000.25,0000.11,0000.28,0000.06,0000.31,0000.17,19.6,25.7,11.9,08.2,0677.3,31.1
2021-07-10T21:09:00Z,00000200,00000000,0000.47,0000.22,0000.13,0000.75,0000.26,0000.07,-000.14,-000.27,0000.17,19.6,25.7,12.0,08.3,0677.3,31.1
2021-07-10T21:10:00Z,00000200,00000000,-000.10,0000.54,0000.02,0000.29,0000.49,-000.14,0000.19,0000.19,-000.00,19.6,25.7,11.9,08.2,0677.3,31.1
2021-07-10T21:11:00Z,00000200,00000000,0000.74,-000.09,-000.15,0000.07,0000.38,-000.11,0000.11,0000.06,-000.07,19.6,25.7,12.0,08.3,0677.3,31.1
2021-07-10T21:12:00Z,00000200,00000000,0001.01,0000.32,0000.10,0000.45,0000.48,-000.09,-000.26,0000.05,-000.06,19.6,25.7,12.0,08.3,0677.3,31.1
2021-07-10T21:13:00Z,00000200,00000000,-000.28,0000.58,0000.35,0000.05,0000.20,0000.02,0000.48,-000.30,0000.07,19.5,25.7,12.1,08.3,0677.3,31.1
2021-07-10T21:14:00Z,00000200,00000000,0000.63,0000.66,-000.00,-000.36,0000.29,0000.13,-000.25,0000.35,0000.03,19.6,25.7,12.0,08.3,0677.3,31.1
2021-07-10T21:15:00Z,00000200,00000000,0001.18,0000.27,0000.11,0000.26,0000.26,0000.40,-000.04,-000.13,0000.22,19.6,25.7,12.0,08.3,0677.3,31.1
2021-07-10T21:16:00Z,00000200,00000000,0000.94,0000.76,0000.46,0000.28,0000.35,0000.20,-000.03,0000.05,-000.18,19.6,25.7,12.0,08.3,0677.3,31.1
2021-07-10T21:17:00Z,00000200,00000000,0000.52,0000.54,0000.37,0000.05,0000.02,-000.22,0000.46,-000.05,0000.41,19.6,25.7,12.0,08.3,0677.3,31.1
2021-07-10T21:18:00Z,00000200,00000000,0000.59,0000.95,-000.10,-000.07,0000.24,0000.35,-000.19,0000.26,-000.13,19.6,25.7,12.0,08.3,0677.3,31.1
2021-07-10T21:19:00Z,00000200,00000000,0000.78,0000.25,0000.07,0000.12,0000.10,0000.14,-000.14,-000.07,-000.25,19.5,25.7,12.1,08.3,0677.3,31.1
2021-07-10T21:20:00Z,00000200,00000000,0001.02,0000.28,-000.00,0000.49,0000.23,0000.21,0000.23,-000.13,0000.34,19.5,25.7,12.1,08.3,0677.3,31.1
2021-07-10T21:21:00Z,00000200,00000000,0001.11,0000.20,0000.24,0000.19,0000.15,0000.17,0000.10,0000.32,-000.30,19.5,25.7,12.1,08.4,0677.3,31.1
2021-07-10T21:22:00Z,00000200,00000000,0001.04,0000.15,0000.32,-000.28,-000.05,0000.42,-000.20,-000.05,-000.02,19.5,25.7,12.0,08.3,0677.3,31.1
2021-07-10T21:23:00Z,00000200,00000000,0001.20,0000.38,0000.05,-000.28,0000.17,0000.40,0000.44,0000.14,0000.51,19.5,25.7,12.0,08.3,0677.3,31.1
2021-07-10T21:24:00Z,00000200,00000000,0000.78,0000.15,0000.25,0000.33,0000.08,0000.29,-000.22,-000.14,-000.00,19.5,25.7,12.1,08.4,0677.4,31.1
2021-07-10T21:25:00Z,00000200,00000000,0000.68,0000.07,-000.14,-000.08,0000.32,-000.25,0000.08,0000.19,-000.15,19.5,25.6,12.0,08.3,0677.4,31.1
2021-07-10T21:26:00Z,00000200,00000000,0000.47,0000.37,0000.27,0000.54,-000.07,0000.30,0000.06,0000.13,0000.58,19.5,25.6,12.1,08.4,0677.4,31.1
2021-07-10T21:27:00Z,00000200,00000000,0000.29,0000.59,0000.08,0000.36,0000.16,0000.38,0000.11,-000.07,-000.64,19.5,25.6,12.1,08.4,0677.4,31.1
2021-07-10T21:28:00Z,00000200,00000000,0000.69,0000.50,0000.06,0000.37,0000.14,0000.24,0000.02,0000.04,0000.23,19.5,25.6,12.1,08.4,0677.4,31.1
2021-07-10T21:29:00Z,00000200,00000000,0001.23,0000.33,0000.32,-000.34,0000.48,0000.21,-000.04,-000.03,-000.27,19.5,25.6,12.1,08.3,0677.4,31.1
2021-07-10T21:30:00Z,00000200,00000000,0001.14,0000.53,0000.34,0000.53,0000.02,-000.11,0000.07,0000.05,0000.11,19.5,25.6,12.1,08.3,0677.4,31.1
2021-07-10T21:31:00Z,00000200,00000000,0000.46,0000.14,0000.31,0000.03,0000.31,0000.13,0000.12,0000.04,0000.05,19.5,25.6,12.1,08.3,0677.4,31.1
2021-07-10T21:32:00Z,00000200,00000000,0000.55,0000.29,-000.10,-000.10,0000.40,0000.03,-000.16,-000.20,0000.25,19.5,25.6,12.2,08.4,0677.4,31.1
2021-07-10T21:33:00Z,00000200,00000000,0000.85,0000.75,0000.08,0000.07,0000.18,0000.45,0000.01,0000.15,-000.01,19.5,25.6,12.1,08.4,0677.4,31.1
2021-07-10T21:34:00Z,00000200,00000000,0001.29,0000.15,0000.24,0000.21,-000.00,-000.04,-000.07,0000.05,-000.02,19.5,25.6,12.1,08.4,0677.5,31.1
2021-07-10T21:35:00Z,00000200,00000000,0000.95,0000.40,0000.37,0000.28,0000.31,0000.29,0000.40,0000.16,0000.10,19.5,25.6,12.2,08.4,0677.4,31.1
2021-07-10T21:36:00Z,00000200,00000000,0000.99,0000.28,0000.01,0000.13,0000.09,0000.14,0000.17,0000.02,0000.04,19.5,25.6,12.2,08.4,0677.4,31.1
2021-07-10T21:37:00Z,00000200,00000000,0000.78,0000.48,0000.22,0000.01,0000.29,0000.00,-000.13,-000.02,-000.00,19.5,25.6,12.1,08.4,0677.4,31.1
2021-07-10T21:38:00Z,00000200,00000000,0000.23,0000.29,0000.00,0000.58,0000.37,0000.04,0000.16,0000.31,0000.29,19.5,25.6,12.2,08.4,0677.5,31.1
2021-07-10T21:39:00Z,00000200,00000000,0000.31,0000.43,0000.29,-000.32,0000.34,0000.15,-000.33,0000.00,-000.32,19.5,25.6,12.3,08.5,0677.5,31.1
2021-07-10T21:40:00Z,00000200,00000000,0000.70,0000.52,0000.42,-000.15,0000.34,-000.02,0000.35,0000.04,0000.11,19.5,25.6,12.2,08.5,0677.5,31.1
2021-07-10T21:41:00Z,00000200,00000000,0001.15,0000.69,0000.29,0000.04,-000.08,0000.06,-000.19,-000.16,0000.19,19.5,25.6,12.2,08.4,0677.5,31.1
2021-07-10T21:42:00Z,00000200,00000000,0000.61,0000.50,0000.30,0000.15,-000.04,-000.10,0000.33,0000.12,-000.24,19.5,25.6,12.2,08.4,0677.5,31.1
2021-07-10T21:43:00Z,00000200,00000000,0001.43,0000.51,0000.29,0000.08,0000.20,0000.13,-000.18,-000.22,0000.04,19.5,25.6,12.0,08.3,0677.5,31.1
2021-07-10T21:44:00Z,00000200,00000000,0000.75,0000.43,0000.26,-000.39,0000.22,0000.14,0000.15,0000.25,0000.11,19.5,25.6,12.0,08.3,0677.5,31.1
2021-07-10T21:45:00Z,00000200,00000000,0001.47,0000.74,0000.27,0000.65,0000.05,0000.13,-000.19,0000.07,0000.02,19.5,25.6,11.9,08.2,0677.4,31.1
2021-07-10T21:46:00Z,00000200,00000000,0001.32,0000.42,0000.47,0000.78,0000.21,0000.03,0000.17,0000.16,0000.26,19.5,25.6,11.9,08.2,0677.4,31.1
2021-07-10T21:47:00Z,00000200,00000000,0001.18,0000.62,0000.29,0000.09,0000.21,0000.16,-000.26,-000.14,-000.29,19.5,25.6,11.8,08.1,0677.4,31.1
2021-07-10T21:48:00Z,00000200,00000000,0001.26,0000.37,0000.36,0000.14,0000.37,0000.20,0000.23,0000.01,0000.35,19.5,25.5,11.8,08.1,0677.5,31.1
2021-07-10T21:49:00Z,00000200,00000000,0001.15,0000.38,0000.50,0000.12,0000.22,-000.09,0000.36,-000.10,-000.11,19.5,25.6,11.8,08.2,0677.5,31.1
2021-07-10T21:50:00Z,00000200,00000000,0001.34,0000.76,0000.24,0000.49,0000.28,0000.44,-000.35,0000.35,0000.10,19.5,25.6,11.8,08.2,0677.5,31.1
2021-07-10T21:51:00Z,00000200,00000000,0001.03,0000.60,0000.67,0000.35,0000.23,0000.39,0000.34,0000.08,-000.15,19.5,25.6,11.8,08.1,0677.4,31.1
2021-07-10T21:52:00Z,00000200,00000000,0000.81,0000.43,0000.40,0000.56,0000.32,0000.27,0000.02,-000.08,0000.24,19.5,25.5,11.9,08.2,0677.4,31.1
2021-07-10T21:53:00Z,00000200,00000000,0001.68,0000.31,0000.32,0000.38,0000.35,0000.21,0000.06,0000.06,0000.05,19.5,25.5,11.7,08.1,0677.4,31.1
2021-07-10T21:54:00Z,00000200,00000000,0000.72,0000.59,0000.44,0000.61,0000.21,0000.32,0000.06,-000.03,0000.03,19.5,25.5,11.8,08.1,0677.4,31.0
2021-07-10T21:55:00Z,00000200,00000000,0001.16,0000.71,0000.44,0000.25,0000.24,0000.05,-000.20,0000.24,0000.06,19.5,25.5,11.6,08.0,0677.4,31.0
2021-07-10T21:56:00Z,00000200,00000000,0002.05,0000.70,0000.36,-000.26,0000.44,0000.06,0000.43,-000.02,-000.22,19.5,25.5,11.5,08.0,0677.5,31.0
2021-07-10T21:57:00Z,00000200,40000000,,,,,,,-000.23,-000.15,0000.20,19.5,25.5,11.2,07.8,0677.4,31.0
2021-07-10T21:58:00Z,00000200,60000000,,,,,,,-000.00,0000.35,0000.04,19.2,25.6,11.7,07.9,0676.5,31.1
2021-07-10T21:59:00Z,00000200,20000000,,,,,,,-000.09,-000.38,-000.14,19.2,25.7,11.8,07.9,0676.5,31.1
